Time,TemperatureF,DewpointF,PressureIn,WindDirection,WindDirectionDegrees,WindSpeedMPH,WindSpeedGustMPH,Humidity,HourlyPrecipIn,Conditions,Clouds,dailyrainin,SoftwareType,DateUTC
2013-08-21 00:00:00,65.3,62.3,30.15,NNE,30,0.0,0.0,90,0.00,,,0.00,Wunderground v.1.13,2013-08-21 04:00:00,
2013-08-21 00:05:00,65.2,62.2,30.16,NNE,30,0.0,0.0,90,0.00,,,0.00,Wunderground v.1.13,2013-08-21 04:05:00,
2013-08-21 00:10:00,65.2,62.2,30.16,NNE,30,0.0,0.0,90,0.00,,,0.00,Wunderground v.1.13,2013-08-21 04:10:00,
2013-08-21 00:15:00,65.1,62.4,30.15,NNE,30,0.0,0.0,91,0.00,,,0.00,Wunderground v.1.13,2013-08-21 04:15:00,
2013-08-21 00:25:00,65.0,62.3,30.16,NNE,30,0.0,0.0,91,0.00,,,0.00,Wunderground v.1.13,2013-08-21 04:25:00,
2013-08-21 00:35:00,64.8,62.1,30.16,NNE,30,0.0,0.0,91,0.00,,,0.00,Wunderground v.1.13,2013-08-21 04:35:00,
2013-08-21 00:45:00,64.5,61.8,30.16,NNE,30,0.0,0.0,91,0.00,,,0.00,Wunderground v.1.13,2013-08-21 04:45:00,
2013-08-21 00:50:00,64.3,61.6,30.16,NNE,30,0.0,0.0,91,0.00,,,0.00,Wunderground v.1.13,2013-08-21 04:50:00,
2013-08-21 01:00:00,63.9,61.2,30.16,NNE,30,0.0,0.0,91,0.00,,,0.00,Wunderground v.1.13,2013-08-21 05:00:00,
2013-08-21 01:10:00,63.7,61.3,30.16,NNE,30,0.0,0.0,92,0.00,,,0.00,Wunderground v.1.13,2013-08-21 05:10:00,
2013-08-21 01:20:00,63.5,61.1,30.16,NNE,30,0.0,0.0,92,0.00,,,0.00,Wunderground v.1.13,2013-08-21 05:20:00,
2013-08-21 01:25:00,63.4,61.0,30.16,NNE,30,0.0,0.0,92,0.00,,,0.00,Wunderground v.1.13,2013-08-21 05:25:00,
2013-08-21 01:35:00,63.2,60.8,30.16,NNE,30,0.0,0.0,92,0.00,,,0.00,Wunderground v.1.13,2013-08-21 05:35:00,
2013-08-21 01:45:00,63.1,60.7,30.16,NNE,30,0.0,0.0,92,0.00,,,0.00,Wunderground v.1.13,2013-08-21 05:45:00,
2013-08-21 01:50:00,63.0,60.6,30.16,NNE,30,0.0,0.0,92,0.00,,,0.00,Wunderground v.1.13,2013-08-21 05:50:00,
2013-08-21 01:55:00,62.8,60.4,30.16,NNE,30,0.0,0.0,92,0.00,,,0.00,Wunderground v.1.13,2013-08-21 05:55:00,
2013-08-21 02:05:00,62.5,60.4,30.15,NNE,30,0.0,0.0,93,0.00,,,0.00,Wunderground v.1.13,2013-08-21 06:05:00,
2013-08-21 02:15:00,62.3,60.2,30.16,NNE,30,0.0,0.0,93,0.00,,,0.00,Wunderground v.1.13,2013-08-21 06:15:00,
2013-08-21 02:25:00,62.2,60.2,30.16,NNE,30,0.0,0.0,93,0.00,,,0.00,Wunderground v.1.13,2013-08-21 06:25:00,
2013-08-21 02:30:00,62.1,60.1,30.16,NNE,30,0.0,0.0,93,0.00,,,0.00,Wunderground v.1.13,2013-08-21 06:30:00,
2013-08-21 02:35:00,62.1,60.1,30.15,NNE,30,0.0,0.0,93,0.00,,,0.00,Wunderground v.1.13,2013-08-21 06:35:00,
2013-08-21 02:45:00,62.0,60.0,30.15,NNE,30,0.0,0.0,93,0.00,,,0.00,Wunderground v.1.13,2013-08-21 06:45:00,
2013-08-21 02:50:00,61.8,59.8,30.15,NNE,30,0.0,0.0,93,0.00,,,0.00,Wunderground v.1.13,2013-08-21 06:50:00,
2013-08-21 03:00:00,61.7,59.7,30.15,NNE,30,0.0,0.0,93,0.00,,,0.00,Wunderground v.1.13,2013-08-21 07:00:00,
2013-08-21 03:05:00,61.7,59.7,30.15,NNE,30,0.0,0.0,93,0.00,,,0.00,Wunderground v.1.13,2013-08-21 07:05:00,
2013-08-21 03:15:00,61.5,59.5,30.15,NNE,30,0.0,0.0,93,0.00,,,0.00,Wunderground v.1.13,2013-08-21 07:15:00,
2013-08-21 03:25:00,61.5,59.5,30.15,NNE,30,0.0,0.0,93,0.00,,,0.00,Wunderground v.1.13,2013-08-21 07:25:00,
2013-08-21 03:35:00,61.3,59.3,30.15,NNE,30,0.0,0.0,93,0.00,,,0.00,Wunderground v.1.13,2013-08-21 07:35:00,
2013-08-21 03:45:00,61.0,59.0,30.15,NNE,30,0.0,0.0,93,0.00,,,0.00,Wunderground v.1.13,2013-08-21 07:45:00,
2013-08-21 03:55:00,61.1,59.4,30.15,NNE,30,0.0,0.0,94,0.00,,,0.00,Wunderground v.1.13,2013-08-21 07:55:00,
2013-08-21 04:00:00,61.1,59.4,30.15,NNE,30,0.0,0.0,94,0.00,,,0.00,Wunderground v.1.13,2013-08-21 08:00:00,
2013-08-21 04:10:00,61.0,59.3,30.14,NNE,30,0.0,0.0,94,0.00,,,0.00,Wunderground v.1.13,2013-08-21 08:10:00,
2013-08-21 04:20:00,60.9,58.9,30.14,NNE,30,0.0,0.0,93,0.00,,,0.00,Wunderground v.1.13,2013-08-21 08:20:00,
2013-08-21 04:25:00,60.7,58.7,30.14,NNE,30,0.0,0.0,93,0.00,,,0.00,Wunderground v.1.13,2013-08-21 08:25:00,
2013-08-21 04:35:00,60.5,58.8,30.14,NNE,30,0.0,0.0,94,0.00,,,0.00,Wunderground v.1.13,2013-08-21 08:35:00,
2013-08-21 04:45:00,60.4,58.4,30.14,NNE,30,0.0,0.0,93,0.00,,,0.00,Wunderground v.1.13,2013-08-21 08:45:00,
2013-08-21 04:50:00,60.4,58.4,30.14,NNE,30,0.0,0.0,93,0.00,,,0.00,Wunderground v.1.13,2013-08-21 08:50:00,
2013-08-21 04:55:00,60.4,58.4,30.14,NNE,28,0.0,0.0,93,0.00,,,0.00,Wunderground v.1.13,2013-08-21 08:55:00,
2013-08-21 05:00:00,60.3,58.3,30.15,NNE,22,1.0,1.0,93,0.00,,,0.00,Wunderground v.1.13,2013-08-21 09:00:00,
2013-08-21 05:10:00,60.0,58.0,30.14,NNE,22,0.0,0.0,93,0.00,,,0.00,Wunderground v.1.13,2013-08-21 09:10:00,
2013-08-21 05:20:00,60.2,58.8,30.15,NNE,22,0.0,0.0,95,0.00,,,0.00,Wunderground v.1.13,2013-08-21 09:20:00,
2013-08-21 05:25:00,60.2,58.5,30.15,NNE,22,0.0,0.0,94,0.00,,,0.00,Wunderground v.1.13,2013-08-21 09:25:00,
2013-08-21 05:35:00,60.1,58.4,30.15,NNE,22,0.0,0.0,94,0.00,,,0.00,Wunderground v.1.13,2013-08-21 09:35:00,
2013-08-21 05:45:00,60.3,58.9,30.15,NNE,22,0.0,0.0,95,0.00,,,0.00,Wunderground v.1.13,2013-08-21 09:45:00,
2013-08-21 05:50:00,60.3,58.6,30.15,NNE,22,0.0,0.0,94,0.00,,,0.00,Wunderground v.1.13,2013-08-21 09:50:00,
2013-08-21 05:55:00,60.2,58.5,30.15,NNE,22,0.0,0.0,94,0.00,,,0.00,Wunderground v.1.13,2013-08-21 09:55:00,
2013-08-21 06:05:00,59.9,58.2,30.15,NNE,22,0.0,0.0,94,0.00,,,0.00,Wunderground v.1.13,2013-08-21 10:05:00,
2013-08-21 06:15:00,59.6,57.9,30.15,NNE,22,0.0,0.0,94,0.00,,,0.00,Wunderground v.1.13,2013-08-21 10:15:00,
2013-08-21 06:25:00,59.5,57.8,30.15,NNE,22,0.0,0.0,94,0.00,,,0.00,Wunderground v.1.13,2013-08-21 10:25:00,
2013-08-21 06:35:00,59.5,57.8,30.15,NNE,22,0.0,0.0,94,0.00,,,0.00,Wunderground v.1.13,2013-08-21 10:35:00,
2013-08-21 06:45:00,59.6,58.2,30.16,NNE,22,0.0,0.0,95,0.00,,,0.00,Wunderground v.1.13,2013-08-21 10:45:00,
2013-08-21 06:55:00,59.8,58.4,30.16,NNE,22,0.0,0.0,95,0.00,,,0.00,Wunderground v.1.13,2013-08-21 10:55:00,
2013-08-21 07:05:00,59.8,58.4,30.16,NNE,22,0.0,0.0,95,0.00,,,0.00,Wunderground v.1.13,2013-08-21 11:05:00,
2013-08-21 07:15:00,59.8,58.1,30.17,NNE,22,0.0,0.0,94,0.00,,,0.00,Wunderground v.1.13,2013-08-21 11:15:00,
2013-08-21 07:25:00,60.0,58.6,30.17,NNE,22,0.0,0.0,95,0.00,,,0.00,Wunderground v.1.13,2013-08-21 11:25:00,
2013-08-21 07:35:00,60.4,59.0,30.17,NNE,22,0.0,0.0,95,0.00,,,0.00,Wunderground v.1.13,2013-08-21 11:35:00,
2013-08-21 07:45:00,60.9,59.5,30.17,NNE,22,0.0,0.0,95,0.00,,,0.00,Wunderground v.1.13,2013-08-21 11:45:00,
2013-08-21 07:50:00,61.2,59.8,30.18,NNE,22,0.0,0.0,95,0.00,,,0.00,Wunderground v.1.13,2013-08-21 11:50:00,
2013-08-21 08:00:00,61.9,60.5,30.17,NNE,22,0.0,0.0,95,0.00,,,0.00,Wunderground v.1.13,2013-08-21 12:00:00,
2013-08-21 08:05:00,62.5,61.0,30.18,NNE,22,0.0,0.0,95,0.00,,,0.00,Wunderground v.1.13,2013-08-21 12:05:00,
2013-08-21 08:10:00,63.0,61.5,30.18,NNE,22,0.0,0.0,95,0.00,,,0.00,Wunderground v.1.13,2013-08-21 12:10:00,
2013-08-21 08:20:00,63.4,61.6,30.18,NNE,22,0.0,0.0,94,0.00,,,0.00,Wunderground v.1.13,2013-08-21 12:20:00,
2013-08-21 08:25:00,63.7,61.9,30.18,NNE,22,0.0,0.0,94,0.00,,,0.00,Wunderground v.1.13,2013-08-21 12:25:00,
2013-08-21 08:35:00,65.2,63.4,30.18,NNE,22,0.0,0.0,94,0.00,,,0.00,Wunderground v.1.13,2013-08-21 12:35:00,
2013-08-21 08:45:00,66.5,63.8,30.18,NNE,22,0.0,0.0,91,0.00,,,0.00,Wunderground v.1.13,2013-08-21 12:45:00,
2013-08-21 08:55:00,67.4,63.7,30.18,NNE,22,0.0,0.0,88,0.00,,,0.00,Wunderground v.1.13,2013-08-21 12:55:00,
2013-08-21 09:05:00,68.3,63.9,30.19,NNE,22,0.0,0.0,86,0.00,,,0.00,Wunderground v.1.13,2013-08-21 13:05:00,
2013-08-21 09:15:00,69.3,64.6,30.18,NNE,22,0.0,0.0,85,0.00,,,0.00,Wunderground v.1.13,2013-08-21 13:15:00,
2013-08-21 09:25:00,70.1,65.4,30.18,NNE,22,0.0,0.0,85,0.00,,,0.00,Wunderground v.1.13,2013-08-21 13:25:00,
2013-08-21 09:35:00,71.3,65.5,30.18,NNE,22,0.0,0.0,82,0.00,,,0.00,Wunderground v.1.13,2013-08-21 13:35:00,
2013-08-21 09:45:00,72.1,65.6,30.18,NNE,22,0.0,0.0,80,0.00,,,0.00,Wunderground v.1.13,2013-08-21 13:45:00,
2013-08-21 09:50:00,72.4,65.9,30.18,NNE,22,0.0,0.0,80,0.00,,,0.00,Wunderground v.1.13,2013-08-21 13:50:00,
2013-08-21 10:00:00,73.0,66.1,30.18,NNE,22,0.0,0.0,79,0.00,,,0.00,Wunderground v.1.13,2013-08-21 14:00:00,
2013-08-21 10:05:00,73.4,66.1,30.18,NNE,22,0.0,0.0,78,0.00,,,0.00,Wunderground v.1.13,2013-08-21 14:05:00,
2013-08-21 10:15:00,74.5,66.1,30.18,ESE,121,0.0,0.0,75,0.00,,,0.00,Wunderground v.1.13,2013-08-21 14:15:00,
2013-08-21 10:20:00,74.9,66.1,30.18,ESE,121,0.0,0.0,74,0.00,,,0.00,Wunderground v.1.13,2013-08-21 14:20:00,
2013-08-21 10:30:00,75.5,66.2,30.18,South,173,2.0,2.0,73,0.00,,,0.00,Wunderground v.1.13,2013-08-21 14:30:00,
2013-08-21 10:35:00,75.7,65.6,30.18,SSE,164,2.0,4.0,71,0.00,,,0.00,Wunderground v.1.13,2013-08-21 14:35:00,
2013-08-21 10:40:00,76.1,65.6,30.18,SE,138,3.0,3.0,70,0.00,,,0.00,Wunderground v.1.13,2013-08-21 14:40:00,
2013-08-21 10:50:00,76.9,66.4,30.18,ESE,112,3.0,5.0,70,0.00,,,0.00,Wunderground v.1.13,2013-08-21 14:50:00,
2013-08-21 10:55:00,77.1,66.1,30.18,SE,132,4.0,4.0,69,0.00,,,0.00,Wunderground v.1.13,2013-08-21 14:55:00,
2013-08-21 11:05:00,77.8,66.4,30.18,ESE,113,4.0,5.0,68,0.00,,,0.00,Wunderground v.1.13,2013-08-21 15:05:00,
2013-08-21 11:10:00,78.2,65.9,30.18,South,181,5.0,5.0,66,0.00,,,0.00,Wunderground v.1.13,2013-08-21 15:10:00,
2013-08-21 11:15:00,78.2,65.0,30.18,SSE,148,5.0,5.0,64,0.00,,,0.00,Wunderground v.1.13,2013-08-21 15:15:00,
2013-08-21 11:20:00,78.7,65.5,30.18,SSE,148,4.0,4.0,64,0.00,,,0.00,Wunderground v.1.13,2013-08-21 15:20:00,
2013-08-21 11:25:00,78.9,65.2,30.17,SSE,161,3.0,3.0,63,0.00,,,0.00,Wunderground v.1.13,2013-08-21 15:25:00,
2013-08-21 11:35:00,79.1,66.3,30.17,SE,136,3.0,6.0,65,0.00,,,0.00,Wunderground v.1.13,2013-08-21 15:35:00,
2013-08-21 11:45:00,78.8,66.5,30.17,SE,141,3.0,4.0,66,0.00,,,0.00,Wunderground v.1.13,2013-08-21 15:45:00,
2013-08-21 11:50:00,79.0,67.5,30.17,SE,141,2.0,8.0,68,0.00,,,0.00,Wunderground v.1.13,2013-08-21 15:50:00,
2013-08-21 12:00:00,79.0,68.4,30.16,NNW,342,3.0,3.0,70,0.00,,,0.00,Wunderground v.1.13,2013-08-21 16:00:00,
2013-08-21 12:10:00,79.7,67.8,30.16,SSE,167,1.0,1.0,67,0.00,,,0.00,Wunderground v.1.13,2013-08-21 16:10:00,
2013-08-21 12:15:00,80.2,67.8,30.16,South,173,2.0,2.0,66,0.00,,,0.00,Wunderground v.1.13,2013-08-21 16:15:00,
2013-08-21 12:25:00,80.2,66.9,30.16,SW,219,2.0,4.0,64,0.00,,,0.00,Wunderground v.1.13,2013-08-21 16:25:00,
2013-08-21 12:30:00,80.5,66.7,30.16,SSW,193,3.0,6.0,63,0.00,,,0.00,Wunderground v.1.13,2013-08-21 16:30:00,
2013-08-21 12:35:00,80.5,66.3,30.16,South,186,3.0,5.0,62,0.00,,,0.00,Wunderground v.1.13,2013-08-21 16:35:00,
2013-08-21 12:45:00,80.8,66.6,30.16,SW,234,3.0,3.0,62,0.00,,,0.00,Wunderground v.1.13,2013-08-21 16:45:00,
2013-08-21 12:55:00,80.8,66.6,30.16,West,267,0.0,1.0,62,0.00,,,0.00,Wunderground v.1.13,2013-08-21 16:55:00,
2013-08-21 13:05:00,80.8,66.6,30.15,WSW,238,1.0,3.0,62,0.00,,,0.00,Wunderground v.1.13,2013-08-21 17:05:00,
2013-08-21 13:15:00,81.1,67.3,30.16,South,180,3.0,3.0,63,0.00,,,0.00,Wunderground v.1.13,2013-08-21 17:15:00,
2013-08-21 13:25:00,81.4,67.1,30.15,SSE,152,2.0,2.0,62,0.00,,,0.00,Wunderground v.1.13,2013-08-21 17:25:00,
2013-08-21 13:35:00,82.5,68.6,30.15,NW,326,2.0,2.0,63,0.00,,,0.00,Wunderground v.1.13,2013-08-21 17:35:00,
2013-08-21 13:40:00,82.5,67.7,30.15,WNW,282,3.0,4.0,61,0.00,,,0.00,Wunderground v.1.13,2013-08-21 17:40:00,
2013-08-21 13:50:00,82.4,69.0,30.14,NW,315,2.0,2.0,64,0.00,,,0.00,Wunderground v.1.13,2013-08-21 17:50:00,
2013-08-21 14:00:00,82.6,67.3,30.13,ESE,119,3.0,3.0,60,0.00,,,0.00,Wunderground v.1.13,2013-08-21 18:00:00,
2013-08-21 14:10:00,82.4,67.6,30.13,South,175,3.0,3.0,61,0.00,,,0.00,Wunderground v.1.13,2013-08-21 18:10:00,
2013-08-21 14:15:00,82.0,66.7,30.13,East,95,4.0,6.0,60,0.00,,,0.00,Wunderground v.1.13,2013-08-21 18:15:00,
2013-08-21 14:20:00,81.6,66.8,30.13,ENE,73,6.0,6.0,61,0.00,,,0.00,Wunderground v.1.13,2013-08-21 18:20:00,
2013-08-21 14:30:00,81.5,67.2,30.12,SE,127,5.0,6.0,62,0.00,,,0.00,Wunderground v.1.13,2013-08-21 18:30:00,
2013-08-21 14:35:00,81.5,66.8,30.12,SE,138,5.0,6.0,61,0.00,,,0.00,Wunderground v.1.13,2013-08-21 18:35:00,
2013-08-21 14:45:00,81.3,67.0,30.11,SE,128,5.0,5.0,62,0.00,,,0.00,Wunderground v.1.13,2013-08-21 18:45:00,
2013-08-21 14:50:00,80.9,67.1,30.11,ENE,71,3.0,3.0,63,0.00,,,0.00,Wunderground v.1.13,2013-08-21 18:50:00,
2013-08-21 15:00:00,80.4,67.6,30.11,ENE,73,1.0,3.0,65,0.00,,,0.00,Wunderground v.1.13,2013-08-21 19:00:00,
2013-08-21 15:10:00,80.5,67.6,30.10,SE,127,2.0,2.0,65,0.00,,,0.00,Wunderground v.1.13,2013-08-21 19:10:00,
2013-08-21 15:20:00,80.3,67.5,30.10,SSE,164,2.0,5.0,65,0.00,,,0.00,Wunderground v.1.13,2013-08-21 19:20:00,
2013-08-21 15:30:00,80.0,67.6,30.09,SSE,163,2.0,2.0,66,0.00,,,0.00,Wunderground v.1.13,2013-08-21 19:30:00,
2013-08-21 15:40:00,80.1,67.7,30.09,SSE,162,1.0,1.0,66,0.00,,,0.00,Wunderground v.1.13,2013-08-21 19:40:00,
2013-08-21 15:50:00,79.8,67.4,30.09,SSE,162,0.0,0.0,66,0.00,,,0.00,Wunderground v.1.13,2013-08-21 19:50:00,
2013-08-21 15:55:00,79.7,67.8,30.09,SSE,162,0.0,0.0,67,0.00,,,0.00,Wunderground v.1.13,2013-08-21 19:55:00,
2013-08-21 16:05:00,79.4,67.9,30.10,SSE,161,1.0,1.0,68,0.00,,,0.00,Wunderground v.1.13,2013-08-21 20:05:00,
2013-08-21 16:10:00,79.3,68.2,30.10,SSE,161,2.0,2.0,69,0.00,,,0.00,Wunderground v.1.13,2013-08-21 20:10:00,
2013-08-21 16:20:00,78.8,68.2,30.10,SSE,161,0.0,0.0,70,0.00,,,0.00,Wunderground v.1.13,2013-08-21 20:20:00,
2013-08-21 16:30:00,78.6,68.0,30.09,SSE,161,0.0,0.0,70,0.00,,,0.00,Wunderground v.1.13,2013-08-21 20:30:00,
2013-08-21 16:40:00,78.6,68.4,30.09,SSE,161,0.0,0.0,71,0.00,,,0.00,Wunderground v.1.13,2013-08-21 20:40:00,
2013-08-21 16:50:00,78.3,68.9,30.09,SSE,161,0.0,2.0,73,0.00,,,0.00,Wunderground v.1.13,2013-08-21 20:50:00,
2013-08-21 17:00:00,77.9,69.3,30.09,SSE,147,2.0,6.0,75,0.00,,,0.00,Wunderground v.1.13,2013-08-21 21:00:00,
2013-08-21 17:05:00,77.7,69.1,30.10,SE,128,3.0,3.0,75,0.00,,,0.00,Wunderground v.1.13,2013-08-21 21:05:00,
2013-08-21 17:15:00,77.5,69.7,30.10,SE,138,2.0,4.0,77,0.00,,,0.00,Wunderground v.1.13,2013-08-21 21:15:00,
2013-08-21 17:25:00,76.5,69.9,30.09,SSE,150,5.0,5.0,80,0.00,,,0.00,Wunderground v.1.13,2013-08-21 21:25:00,
2013-08-21 17:35:00,75.3,69.8,30.09,SE,133,5.0,5.0,83,0.00,,,0.00,Wunderground v.1.13,2013-08-21 21:35:00,
2013-08-21 17:45:00,75.0,69.8,30.09,SE,139,3.0,3.0,84,0.00,,,0.00,Wunderground v.1.13,2013-08-21 21:45:00,
2013-08-21 17:50:00,74.8,69.6,30.08,SE,139,1.0,1.0,84,0.00,,,0.00,Wunderground v.1.13,2013-08-21 21:50:00,
2013-08-21 18:00:00,74.2,69.4,30.09,SE,139,0.0,0.0,85,0.00,,,0.00,Wunderground v.1.13,2013-08-21 22:00:00,
2013-08-21 18:05:00,74.0,69.2,30.08,SSE,160,1.0,2.0,85,0.00,,,0.00,Wunderground v.1.13,2013-08-21 22:05:00,
2013-08-21 18:15:00,74.1,70.0,30.09,SW,215,2.0,3.0,87,0.00,,,0.01,Wunderground v.1.13,2013-08-21 22:15:00,
2013-08-21 18:25:00,74.3,70.2,30.08,SSW,212,3.0,3.0,87,0.00,,,0.01,Wunderground v.1.13,2013-08-21 22:25:00,
2013-08-21 18:35:00,74.4,69.6,30.07,South,171,3.0,3.0,85,0.00,,,0.01,Wunderground v.1.13,2013-08-21 22:35:00,
2013-08-21 18:45:00,74.2,69.4,30.08,ESE,122,6.0,6.0,85,0.00,,,0.01,Wunderground v.1.13,2013-08-21 22:45:00,
2013-08-21 18:50:00,74.0,69.5,30.08,ESE,113,7.0,7.0,86,0.00,,,0.01,Wunderground v.1.13,2013-08-21 22:50:00,
2013-08-21 19:00:00,73.3,69.2,30.08,ESE,104,3.0,3.0,87,0.00,,,0.01,Wunderground v.1.13,2013-08-21 23:00:00,
2013-08-21 19:10:00,72.9,68.5,30.08,SE,130,1.0,1.0,86,0.00,,,0.01,Wunderground v.1.13,2013-08-21 23:10:00,
2013-08-21 19:15:00,72.7,68.6,30.07,SE,134,1.0,1.0,87,0.00,,,0.01,Wunderground v.1.13,2013-08-21 23:15:00,
2013-08-21 19:25:00,72.7,68.9,30.07,SSE,149,0.0,0.0,88,0.00,,,0.01,Wunderground v.1.13,2013-08-21 23:25:00,
2013-08-21 19:35:00,72.5,68.4,30.07,SSE,159,1.0,1.0,87,0.00,,,0.01,Wunderground v.1.13,2013-08-21 23:35:00,
2013-08-21 19:45:00,72.3,68.5,30.07,SSE,160,1.0,1.0,88,0.00,,,0.01,Wunderground v.1.13,2013-08-21 23:45:00,
2013-08-21 19:55:00,72.2,68.4,30.07,SSE,160,1.0,1.0,88,0.00,,,0.01,Wunderground v.1.13,2013-08-21 23:55:00,
2013-08-21 20:05:00,71.9,68.5,30.05,East,84,3.0,3.0,89,0.00,,,0.01,Wunderground v.1.13,2013-08-22 00:05:00,
2013-08-21 20:15:00,71.2,67.8,30.06,SE,138,2.0,7.0,89,0.00,,,0.01,Wunderground v.1.13,2013-08-22 00:15:00,
2013-08-21 20:25:00,70.8,67.4,30.07,SSE,151,2.0,2.0,89,0.00,,,0.01,Wunderground v.1.13,2013-08-22 00:25:00,
2013-08-21 20:35:00,70.5,67.4,30.07,SSE,165,2.0,2.0,90,0.00,,,0.01,Wunderground v.1.13,2013-08-22 00:35:00,
2013-08-21 20:40:00,70.4,67.3,30.07,South,180,2.0,2.0,90,0.00,,,0.01,Wunderground v.1.13,2013-08-22 00:40:00,
2013-08-21 20:45:00,70.3,66.9,30.07,SSW,204,2.0,3.0,89,0.00,,,0.01,Wunderground v.1.13,2013-08-22 00:45:00,
2013-08-21 20:55:00,70.0,66.3,30.07,SW,226,1.0,1.0,88,0.00,,,0.01,Wunderground v.1.13,2013-08-22 00:55:00,
2013-08-21 21:05:00,69.7,66.0,30.09,South,172,1.0,2.0,88,0.00,,,0.01,Wunderground v.1.13,2013-08-22 01:05:00,
2013-08-21 21:15:00,69.9,65.5,30.09,SSW,198,2.0,4.0,86,0.00,,,0.01,Wunderground v.1.13,2013-08-22 01:15:00,
2013-08-21 21:20:00,69.9,65.5,30.09,SSE,158,2.0,2.0,86,0.00,,,0.01,Wunderground v.1.13,2013-08-22 01:20:00,
2013-08-21 21:30:00,69.5,64.8,30.09,SSE,161,2.0,4.0,85,0.00,,,0.01,Wunderground v.1.13,2013-08-22 01:30:00,
2013-08-21 21:40:00,69.1,64.7,30.10,SSE,155,3.0,3.0,86,0.00,,,0.01,Wunderground v.1.13,2013-08-22 01:40:00,
2013-08-21 21:50:00,68.8,64.4,30.09,SSE,155,1.0,1.0,86,0.00,,,0.01,Wunderground v.1.13,2013-08-22 01:50:00,
2013-08-21 21:55:00,68.7,64.7,30.10,SSE,147,1.0,1.0,87,0.00,,,0.01,Wunderground v.1.13,2013-08-22 01:55:00,
2013-08-21 22:05:00,68.6,64.6,30.10,SE,146,0.0,1.0,87,0.00,,,0.01,Wunderground v.1.13,2013-08-22 02:05:00,
2013-08-21 22:10:00,68.5,64.1,30.10,SE,146,0.0,0.0,86,0.00,,,0.01,Wunderground v.1.13,2013-08-22 02:10:00,
2013-08-21 22:20:00,68.1,64.4,30.11,SSE,147,0.0,0.0,88,0.00,,,0.01,Wunderground v.1.13,2013-08-22 02:20:00,
2013-08-21 22:25:00,68.1,64.4,30.10,SSE,147,0.0,2.0,88,0.00,,,0.01,Wunderground v.1.13,2013-08-22 02:25:00,
2013-08-21 22:30:00,67.9,64.2,30.10,SSE,147,1.0,1.0,88,0.00,,,0.01,Wunderground v.1.13,2013-08-22 02:30:00,
2013-08-21 22:35:00,67.5,63.8,30.10,SSE,147,2.0,4.0,88,0.00,,,0.01,Wunderground v.1.13,2013-08-22 02:35:00,
2013-08-21 22:40:00,67.1,63.7,30.10,SSE,147,2.0,2.0,89,0.00,,,0.01,Wunderground v.1.13,2013-08-22 02:40:00,
2013-08-21 22:50:00,66.7,63.7,30.10,SSE,147,0.0,0.0,90,0.00,,,0.01,Wunderground v.1.13,2013-08-22 02:50:00,
2013-08-21 23:00:00,66.7,63.7,30.10,SSE,147,0.0,0.0,90,0.00,,,0.01,Wunderground v.1.13,2013-08-22 03:00:00,
2013-08-21 23:10:00,66.7,63.7,30.11,SSE,147,0.0,0.0,90,0.00,,,0.01,Wunderground v.1.13,2013-08-22 03:10:00,
2013-08-21 23:20:00,66.6,63.6,30.11,SSE,147,0.0,0.0,90,0.00,,,0.01,Wunderground v.1.13,2013-08-22 03:20:00,
2013-08-21 23:25:00,66.4,63.1,30.11,SSE,150,0.0,5.0,89,0.00,,,0.01,Wunderground v.1.13,2013-08-22 03:25:00,
2013-08-21 23:35:00,66.0,63.0,30.11,SSW,205,0.0,0.0,90,0.00,,,0.01,Wunderground v.1.13,2013-08-22 03:35:00,
2013-08-21 23:40:00,65.9,63.2,30.11,SSW,206,0.0,1.0,91,0.00,,,0.01,Wunderground v.1.13,2013-08-22 03:40:00,
2013-08-21 23:50:00,66.1,63.4,30.11,SSW,206,0.0,0.0,91,0.00,,,0.01,Wunderground v.1.13,2013-08-22 03:50:00,